Regional Weather Roundup
Issued by NWS

Home | Current Version | Previous Version | Text Only | Print | Product List | Glossary On
Versions: 1 2 3 4 5 6 7 8 9 10 11 12 13 14 15 16 17 18 19 20 21 22 23 24 25 26 27 28 29 30 31 32 33 34 35 36 37 38 39 40 41 42 43 44 45 46 47 48 49 50
505
ASUS46 KSTO 122104
RWRCA

NORTHERN AND CENTRAL CA REGIONAL WEATHER ROUNDUP
NATIONAL WEATHER SERVICE SACRAMENTO CA
100 PM PST FRI FEB 12 2016

NOTE: FAIR INDICATES FEW OR NO CLOUDS BELOW 12,000 FEET WITH NO
SIGNIFICANT WEATHER AND/OR OBSTRUCTIONS TO VISIBILITY.

CAZ001-003-122200-
NORTHWEST AREA

CITY           SKY/WX    TMP DP  RH WIND       PRES   REMARKS
CRESCENT CITY  LGT RAIN  55  54  96 SE8       30.27F FOG
UKIAH          MOSUNNY   67  49  52 CALM      30.21F
$$

CAZ006-505>513-122200-
BAY AREA

CITY           SKY/WX    TMP DP  RH WIND       PRES   REMARKS
SANTA ROSA     MOSUNNY   69  52  54 S6        30.17F
SAN RAFAEL     N/A       61  MM  MM MISG
NAPA           MOSUNNY   64  52  64 SW5       30.19F
CONCORD        SUNNY     70  47  43 CALM      30.19F
OAKLAND CITY   N/A       63  MM  MM MISG
OAKLAND        PTSUNNY   63  50  62 SW7       30.20F
SAN FRAN CITY  N/A       68  MM  52 MISG
SAN FRAN ARPT  PTSUNNY   60  54  80 E5        30.20F
LIVERMORE      MOSUNNY   66  50  56 SE5       30.19F
HAYWARD        MOSUNNY   65  51  60 W3        30.19F
REDWOOD CITY   N/A       MM  MM  MM MISG
MOFFETT ARPT   MOSUNNY   65  51  60 N5        30.21F
SAN JOSE ARPT  CLOUDY    66  49  54 NW8       30.20F
$$
CAZ034-037-514>518-122200-
CENTRAL COAST

CITY           SKY/WX    TMP DP  RH WIND       PRES   REMARKS
WATSONVILLE    MOSUNNY   68  51  54 S3        30.17F
SALINAS        SUNNY     69  50  50 W7        30.16F
MONTEREY       MOSUNNY   62  51  67 NW3       30.18F
SAN LUIS OBISP SUNNY     80  55  42 NW9       30.08F
SANTA MARIA    MOSUNNY   74  50  42 NW3       30.10F
$$
CAZ015-016-122200-
NORTHERN SACRAMENTO VALLEY

CITY           SKY/WX    TMP DP  RH WIND       PRES   REMARKS
REDDING        CLOUDY    67  44  43 W6        30.17F
RED BLUFF      PTSUNNY   67  46  47 W5        30.18F
OROVILLE       PTSUNNY   66  48  52 CALM      30.19F
$$
CAZ016>018-122200-
SOUTHERN SACRAMENTO VALLEY

CITY           SKY/WX    TMP DP  RH WIND       PRES   REMARKS
AUBURN         SUNNY     66  43  42 W6        30.22F
BEALE AFB      MOSUNNY   67  48  50 W6        30.17F
LINCOLN        FAIR      68  46  45 N5        30.18F
MARYSVILLE     PTSUNNY   67  47  48 VRB3      30.19F
SAC INTL ARPT  PTSUNNY   67  50  54 E5        30.18F
MATHER AIRPORT MOSUNNY   68  50  52 NW3       30.19F
DOWNTOWN SAC   N/A       69  MM  MM MISG
SAC EXEC ARPT  MOSUNNY   69  52  54 VRB3      30.19F
VACAVILLE      MOSUNNY   68  51  54 CALM      30.20F
TRAVIS AFB     MOSUNNY   67  55  65 NW1       30.18F
$$
CAZ019>021-122200-
SAN JOAQUIN VALLEY

CITY           SKY/WX    TMP DP  RH WIND       PRES   REMARKS
STOCKTON       PTSUNNY   68  54  60 NW7       30.18F
MODESTO        PTSUNNY   68  53  58 NW9       30.18F
MERCED         MOSUNNY   66  52  60 NW9       30.18F
LEMOORE        PTSUNNY   68  54  60 CALM      30.18F HAZE
FRESNO         CLOUDY    67  51  56 NW3       30.18F HAZE
HANFORD        MOSUNNY   69  54  58 NE3       30.18F HAZE
PORTERVILLE    MOSUNNY  N/A N/A N/A CALM      30.18F
BAKERSFIELD    MOSUNNY   70  47  43 NW7       30.16F
$$
CAZ011-012-071-122200-
NORTHERN MOUNTAINS

CITY           SKY/WX    TMP DP  RH WIND       PRES   REMARKS
YREKA          SUNNY     62  39  42 VRB3      30.18F
MOUNT SHASTA   MOSUNNY   61  41  47 VRB3      30.20F
ALTURAS        PTSUNNY   61  34  36 NW5       30.23F
$$
CAZ011-012-071-122200-
SIERRA NEVADA MTNS

CITY           SKY/WX    TMP DP  RH WIND       PRES   REMARKS
BLUE CANYON    SUNNY     57  24  28 W5        30.31F
TRUCKEE        PTSUNNY   54  23  30 CALM      30.30F
TAHOE VLY ARPT MOSUNNY   57  25  29 VRB5      30.30F
MAMMOTH LAKES  FAIR      55   7  14 SE8       30.34F
$$




USA.gov is the U.S. government's official web portal to all federal, state and local government web resources and services.